Greenwood, MS

1:19 PM CST on January 18, 2017 (GMT -0600)
Greenwood-Leflore

Weather History for KGWO - May, 2014

Change the Weather History Date:

Monday, May 19, 2014

  Actual Average Record
Temperature  
Mean Temperature 73 °F 73 °F  
Max Temperature 85 °F 84 °F 95 °F (1962)
Min Temperature 61 °F 62 °F 41 °F (2002)
Degree Days  
Heating Degree Days 0 0  
Month to date heating degree days 34 15  
Since 1 July heating degree days 3271 2686  
Cooling Degree Days 8 8  
Month to date cooling degree days 104 114  
Year to date cooling degree days 167 216  
Growing Degree Days 22 (Base 50)    
Moisture  
Dew Point 59 °F    
Average Humidity 66    
Maximum Humidity 97    
Minimum Humidity 34    
Precipitation  
Precipitation 0.00 in 0.15 in 2.02 in (1978)
Month to date precipitation 0.89 3.17  
Year to date precipitation 20.87 21.55  
Sea Level Pressure  
Sea Level Pressure 30.12 in    
Wind  
Wind Speed 7 mph (South)    
Max Wind Speed 16 mph    
Max Gust Speed 21 mph    
Visibility 10 miles    
Events      
T = Trace of Precipitation, MM = Missing Value Source: NWS Daily Summary

Daily Weather History Graph

Daily Weather History Graph

Search for Another Location

Airport or City:

Trip Planner

Search our weather history database for the weather conditions in past years. The results will help you decide how hot, cold, wet, or windy it might be!

Date:

Astronomy

May. 19, 2014 Rise Set
Actual Time 5:57 AM CDT 7:56 PM CDT
Civil Twilight 5:29 AM CDT 8:24 PM CDT
Nautical Twilight 4:55 AM CDT 8:58 PM CDT
Astronomical Twilight 4:20 AM CDT 9:34 PM CDT
Moon No Moon Rise 10:50 AM CDT (5/19)
Length of Visible Light 14h 54m
Length of Day
13h 59m
Waning Gibbous, 71% of the Moon is Illuminated
May 19
Waning Gibbous
May 21
Last Quarter
May 28
New
Jun 5
First Quarter
Jun 12
Full

Hourly Weather History & Observations

Time (CDT) Temp. Heat Index Dew Point Humidity Pressure Visibility Wind Dir Wind Speed Gust Speed Precip Events Conditions
12:53 AM 63.0 °F - 60.1 °F 90% 30.13 in 10.0 mi Variable 4.6 mph - N/A   Clear
1:53 AM 62.1 °F - 59.0 °F 90% 30.12 in 10.0 mi Calm Calm - N/A   Clear
2:53 AM 62.1 °F - 59.0 °F 90% 30.13 in 10.0 mi ESE 6.9 mph - N/A   Clear
3:53 AM 62.1 °F - 59.0 °F 90% 30.13 in 10.0 mi Variable 3.5 mph - N/A   Clear
4:53 AM 61.0 °F - 59.0 °F 93% 30.13 in 10.0 mi Calm Calm - N/A   Clear
5:53 AM 62.1 °F - 59.0 °F 90% 30.14 in 10.0 mi SSE 5.8 mph - N/A   Clear
6:53 AM 63.0 °F - 60.1 °F 90% 30.15 in 9.0 mi SSE 8.1 mph - N/A   Clear
8:53 AM 71.1 °F - 63.0 °F 75% 30.17 in 10.0 mi South 5.8 mph - N/A   Clear
9:53 AM 73.9 °F - 63.0 °F 68% 30.18 in 10.0 mi South 4.6 mph - N/A   Clear
10:53 AM 77.0 °F - 63.0 °F 62% 30.17 in 10.0 mi Variable 4.6 mph - N/A   Clear
11:53 AM 80.1 °F 81.5 °F 63.0 °F 56% 30.16 in 10.0 mi Variable 5.8 mph - N/A   Clear
12:53 PM 80.6 °F 81.5 °F 60.8 °F 51% 30.15 in 10.0 mi South 10.4 mph - N/A   Scattered Clouds
1:53 PM 84.0 °F 83.5 °F 57.9 °F 41% 30.14 in 10.0 mi SSW 9.2 mph - N/A   Clear
2:53 PM 84.9 °F 83.7 °F 55.9 °F 37% 30.12 in 10.0 mi South 12.7 mph - N/A   Clear
3:53 PM 84.0 °F 82.5 °F 53.1 °F 34% 30.10 in 10.0 mi SSE 11.5 mph - N/A   Clear
4:53 PM 84.0 °F 82.6 °F 54.0 °F 35% 30.09 in 10.0 mi South 16.1 mph - N/A   Clear
5:53 PM 82.9 °F 81.9 °F 54.0 °F 37% 30.08 in 10.0 mi South 12.7 mph - N/A   Clear
6:53 PM 79.0 °F - 57.0 °F 47% 30.07 in 10.0 mi South 8.1 mph - N/A   Clear
7:53 PM 75.0 °F - 57.9 °F 55% 30.07 in 10.0 mi SSE 5.8 mph - N/A   Clear
8:53 PM 71.1 °F - 59.0 °F 66% 30.07 in 10.0 mi South 8.1 mph - N/A   Clear
9:53 PM 71.1 °F - 57.9 °F 63% 30.07 in 10.0 mi South 8.1 mph - N/A   Clear
10:53 PM 66.9 °F - 57.9 °F 73% 30.08 in 10.0 mi SSW 4.6 mph - N/A   Clear
11:53 PM 66.9 °F - 57.0 °F 70% 30.08 in 10.0 mi South 8.1 mph - N/A   Clear